UAL2327 KDEN-KOMA

Flight info

Callsign UAL2327
Flight time 1h 7m
Altitude 35000
Route CHUWY1 CHUWY HOWRY3
Aircraft B738/M-SDE2E3FGHIRWXY/LB1

Departure

Time 2026-05-04 12:32
Airport Denver International Airport (KDEN)

Arrival

Time 2026-05-04 13:40
Airport Eppley Airfield (KOMA)
Time Latitude Longitude Altitude Speed Heading
2026-05-04 11:52 39.85339 -104.68085 5382 ft 0 kts
2026-05-04 12:14 39.85303 -104.68087 5378 ft 3 kts
2026-05-04 12:15 39.85281 -104.68090 5380 ft 3 kts
2026-05-04 12:15 39.85259 -104.68097 5378 ft 3 kts 25°
2026-05-04 12:15 39.85243 -104.68111 5382 ft 3 kts 70°
2026-05-04 12:15 39.85241 -104.68119 5382 ft 0 kts 90°
2026-05-04 12:21 39.85245 -104.68111 5381 ft 1 kts 57°
2026-05-04 12:21 39.85258 -104.68092 5381 ft 4 kts 53°
2026-05-04 12:21 39.85279 -104.68041 5379 ft 9 kts 72°
2026-05-04 12:22 39.85282 -104.67939 5382 ft 11 kts 89°
2026-05-04 12:22 39.85281 -104.67831 5382 ft 14 kts 91°
2026-05-04 12:22 39.85280 -104.67683 5382 ft 18 kts 90°
2026-05-04 12:22 39.85279 -104.67506 5382 ft 16 kts 90°
2026-05-04 12:23 39.85278 -104.67421 5382 ft 7 kts 91°
2026-05-04 12:23 39.85277 -104.67334 5382 ft 12 kts 90°
2026-05-04 12:23 39.85277 -104.67206 5382 ft 16 kts 90°
2026-05-04 12:23 39.85276 -104.67039 5382 ft 20 kts 91°
2026-05-04 12:24 39.85274 -104.66838 5382 ft 24 kts 90°
2026-05-04 12:24 39.85273 -104.66628 5385 ft 15 kts 91°
2026-05-04 12:24 39.85292 -104.66525 5384 ft 11 kts 70°
2026-05-04 12:24 39.85295 -104.66424 5390 ft 11 kts 90°
2026-05-04 12:25 39.85295 -104.66346 5393 ft 6 kts 90°
2026-05-04 12:25 39.85295 -104.66295 5395 ft 6 kts 88°
2026-05-04 12:25 39.85328 -104.66242 5392 ft 10 kts 17°
2026-05-04 12:25 39.85417 -104.66239 5392 ft 15 kts 359°
2026-05-04 12:26 39.85542 -104.66238 5389 ft 21 kts
2026-05-04 12:26 39.85713 -104.66236 5389 ft 28 kts
2026-05-04 12:26 39.85879 -104.66234 5382 ft 16 kts
2026-05-04 12:26 39.86005 -104.66232 5386 ft 21 kts
2026-05-04 12:27 39.86172 -104.66230 5381 ft 27 kts
2026-05-04 12:27 39.86356 -104.66227 5381 ft 25 kts
2026-05-04 12:27 39.86439 -104.66225 5378 ft 2 kts
2026-05-04 12:27 39.86482 -104.66211 5380 ft 11 kts 36°
2026-05-04 12:28 39.86499 -104.66105 5381 ft 17 kts 90°
2026-05-04 12:28 39.86498 -104.65884 5375 ft 31 kts 91°
2026-05-04 12:28 39.86496 -104.65590 5367 ft 32 kts 91°
2026-05-04 12:28 39.86494 -104.65355 5362 ft 24 kts 91°
2026-05-04 12:29 39.86492 -104.65141 5360 ft 23 kts 90°
2026-05-04 12:29 39.86491 -104.64937 5356 ft 22 kts 90°
2026-05-04 12:29 39.86489 -104.64752 5351 ft 16 kts 91°
2026-05-04 12:29 39.86488 -104.64609 5349 ft 16 kts 90°
2026-05-04 12:30 39.86487 -104.64470 5346 ft 15 kts 90°
2026-05-04 12:30 39.86486 -104.64337 5344 ft 14 kts 90°
2026-05-04 12:30 39.86486 -104.64209 5345 ft 14 kts 90°
2026-05-04 12:30 39.86469 -104.64135 5347 ft 7 kts 160°
2026-05-04 12:31 39.86425 -104.64132 5346 ft 4 kts 179°
2026-05-04 12:31 39.86368 -104.64132 5345 ft 27 kts 180°
2026-05-04 12:31 39.85943 -104.64137 5350 ft 93 kts 180°
2026-05-04 12:31 39.85094 -104.64148 5358 ft 149 kts 181°
2026-05-04 12:32 39.83910 -104.64157 5495 ft 185 kts 183°
2026-05-04 12:32 39.81317 -104.64186 6970 ft 196 kts 169°
2026-05-04 12:32 39.80001 -104.63509 7483 ft 211 kts 148°
2026-05-04 12:33 39.79062 -104.62046 8098 ft 210 kts 112°
2026-05-04 12:33 39.78780 -104.60223 8870 ft 208 kts 86°
2026-05-04 12:33 39.79093 -104.58380 9395 ft 213 kts 64°
2026-05-04 12:33 39.79885 -104.56735 9829 ft 218 kts 45°
2026-05-04 12:34 39.81054 -104.55465 10272 ft 220 kts 28°
2026-05-04 12:34 39.82433 -104.54458 10558 ft 236 kts 26°
2026-05-04 12:34 39.83914 -104.53430 10811 ft 254 kts 25°
2026-05-04 12:34 39.85562 -104.52314 10857 ft 284 kts 25°
2026-05-04 12:35 39.87411 -104.51031 10955 ft 314 kts 26°
2026-05-04 12:35 39.89497 -104.49884 11107 ft 337 kts 15°
2026-05-04 12:35 39.91827 -104.49028 11339 ft 357 kts 12°
2026-05-04 12:35 39.94259 -104.48211 11920 ft 364 kts 12°
2026-05-04 12:36 39.96720 -104.47372 12674 ft 366 kts 12°
2026-05-04 12:36 39.99176 -104.46500 13469 ft 368 kts 13°
2026-05-04 12:36 40.01663 -104.45586 14151 ft 372 kts 13°
2026-05-04 12:36 40.04126 -104.44659 14786 ft 376 kts 13°
2026-05-04 12:37 40.06649 -104.43695 15429 ft 380 kts 13°
2026-05-04 12:37 40.09190 -104.42714 16051 ft 383 kts 14°
2026-05-04 12:37 40.11761 -104.41716 16696 ft 387 kts 14°
2026-05-04 12:37 40.14353 -104.40709 16865 ft 389 kts 14°
2026-05-04 12:38 40.16943 -104.39699 16886 ft 389 kts 14°
2026-05-04 12:38 40.19534 -104.38688 16913 ft 389 kts 14°
2026-05-04 12:38 40.22146 -104.37670 17074 ft 395 kts 14°
2026-05-04 12:38 40.24754 -104.36654 17827 ft 394 kts 13°
2026-05-04 12:39 40.27379 -104.35628 18553 ft 395 kts 13°
2026-05-04 12:39 40.30026 -104.34594 19086 ft 399 kts 13°
2026-05-04 12:39 40.32697 -104.33549 19576 ft 404 kts 13°
2026-05-04 12:39 40.35418 -104.32485 20101 ft 409 kts 13°
2026-05-04 12:40 40.38153 -104.31413 20631 ft 412 kts 13°
2026-05-04 12:40 40.40910 -104.30332 21128 ft 416 kts 13°
2026-05-04 12:40 40.43704 -104.29235 21619 ft 420 kts 13°
2026-05-04 12:40 40.46512 -104.28131 22119 ft 424 kts 12°
2026-05-04 12:41 40.49313 -104.27029 22618 ft 427 kts 12°
2026-05-04 12:41 40.52171 -104.25904 23094 ft 431 kts 13°
2026-05-04 12:41 40.54952 -104.24332 23483 ft 445 kts 30°
2026-05-04 12:41 40.57212 -104.21484 23836 ft 459 kts 52°
2026-05-04 12:42 40.58638 -104.17704 24302 ft 468 kts 71°
2026-05-04 12:42 40.59277 -104.13480 24698 ft 473 kts 79°
2026-05-04 12:42 40.59808 -104.09193 24990 ft 478 kts 78°
2026-05-04 12:42 40.60370 -104.04854 25284 ft 483 kts 78°
2026-05-04 12:43 40.60948 -104.00491 25635 ft 486 kts 78°
2026-05-04 12:43 40.61530 -103.96165 25994 ft 489 kts 78°
2026-05-04 12:43 40.62133 -103.91742 26320 ft 492 kts 78°
2026-05-04 12:43 40.62741 -103.87300 26630 ft 495 kts 78°
2026-05-04 12:44 40.63355 -103.82828 26955 ft 498 kts 78°
2026-05-04 12:44 40.63972 -103.78320 27260 ft 502 kts 78°
2026-05-04 12:44 40.64591 -103.73781 27567 ft 505 kts 78°
2026-05-04 12:44 40.65211 -103.69224 27861 ft 508 kts 78°
2026-05-04 12:45 40.65833 -103.64629 28165 ft 511 kts 78°
2026-05-04 12:45 40.66447 -103.60069 28467 ft 514 kts 78°
2026-05-04 12:45 40.67071 -103.55426 28761 ft 517 kts 78°
2026-05-04 12:45 40.67697 -103.50757 29108 ft 518 kts 78°
2026-05-04 12:46 40.68318 -103.46098 29625 ft 516 kts 78°
2026-05-04 12:46 40.68934 -103.41459 30143 ft 513 kts 78°
2026-05-04 12:46 40.69548 -103.36831 30533 ft 512 kts 78°
2026-05-04 12:46 40.70157 -103.32220 30884 ft 511 kts 78°
2026-05-04 12:47 40.70758 -103.27664 31241 ft 511 kts 78°
2026-05-04 12:47 40.71362 -103.23063 31637 ft 509 kts 78°
2026-05-04 12:47 40.71964 -103.18472 32036 ft 507 kts 78°
2026-05-04 12:47 40.72561 -103.13901 32403 ft 506 kts 78°
2026-05-04 12:48 40.73156 -103.09330 32751 ft 503 kts 78°
2026-05-04 12:48 40.73743 -103.04798 33225 ft 500 kts 78°
2026-05-04 12:48 40.74325 -103.00300 33617 ft 498 kts 78°
2026-05-04 12:48 40.74906 -102.95794 33919 ft 498 kts 78°
2026-05-04 12:49 40.75485 -102.91291 34197 ft 498 kts 78°
2026-05-04 12:49 40.76055 -102.86844 34443 ft 498 kts 78°
2026-05-04 12:49 40.76630 -102.82340 34655 ft 499 kts 78°
2026-05-04 12:50 40.77787 -102.73249 34747 ft 504 kts 78°
2026-05-04 12:50 40.78931 -102.64175 34737 ft 498 kts 78°
2026-05-04 12:51 40.80056 -102.55198 34758 ft 495 kts 78°
2026-05-04 12:51 40.81168 -102.46276 34753 ft 496 kts 78°
2026-05-04 12:52 40.82281 -102.37287 34755 ft 497 kts 78°
2026-05-04 12:52 40.83390 -102.28274 34746 ft 497 kts 78°
2026-05-04 12:53 40.84491 -102.19259 34743 ft 498 kts 78°
2026-05-04 12:53 40.85580 -102.10285 34764 ft 498 kts 78°
2026-05-04 12:54 40.86668 -102.01258 34791 ft 499 kts 78°
2026-05-04 12:54 40.87752 -101.92202 34796 ft 499 kts 78°
2026-05-04 12:55 40.88829 -101.83140 34806 ft 499 kts 78°
2026-05-04 12:55 40.89893 -101.74124 34805 ft 500 kts 78°
2026-05-04 12:56 40.90957 -101.65048 34818 ft 500 kts 78°
2026-05-04 12:56 40.92016 -101.55951 34800 ft 501 kts 78°
2026-05-04 12:57 40.93068 -101.46857 34779 ft 501 kts 78°
2026-05-04 12:57 40.94106 -101.37811 34766 ft 501 kts 79°
2026-05-04 12:58 40.95144 -101.28701 34772 ft 501 kts 78°
2026-05-04 12:58 40.96176 -101.19573 34756 ft 502 kts 78°
2026-05-04 12:59 40.97203 -101.10436 34750 ft 502 kts 79°
2026-05-04 12:59 40.98215 -101.01350 34759 ft 502 kts 79°
2026-05-04 13:00 40.99227 -100.92204 34771 ft 502 kts 79°
2026-05-04 13:00 41.00232 -100.83053 34783 ft 502 kts 79°
2026-05-04 13:01 41.01231 -100.73895 34795 ft 502 kts 79°
2026-05-04 13:01 41.02215 -100.64799 34791 ft 503 kts 79°
2026-05-04 13:02 41.03198 -100.55644 34798 ft 503 kts 79°
2026-05-04 13:02 41.04175 -100.46470 34778 ft 503 kts 79°
2026-05-04 13:03 41.05145 -100.37296 34757 ft 503 kts 79°
2026-05-04 13:03 41.06108 -100.28114 34740 ft 503 kts 79°
2026-05-04 13:04 41.07058 -100.18987 34736 ft 503 kts 79°
2026-05-04 13:04 41.08007 -100.09795 34720 ft 504 kts 79°
2026-05-04 13:05 41.08949 -100.00603 34719 ft 504 kts 79°
2026-05-04 13:05 41.09883 -99.91401 34715 ft 503 kts 79°
2026-05-04 13:06 41.10805 -99.82259 34752 ft 503 kts 79°
2026-05-04 13:06 41.11723 -99.73072 34712 ft 503 kts 79°
2026-05-04 13:07 41.12634 -99.63882 34716 ft 502 kts 79°
2026-05-04 13:07 41.13535 -99.54717 34715 ft 501 kts 79°
2026-05-04 13:08 41.14422 -99.45622 34733 ft 500 kts 80°
2026-05-04 13:08 41.15305 -99.36485 34711 ft 498 kts 80°
2026-05-04 13:09 41.16178 -99.27379 34704 ft 497 kts 80°
2026-05-04 13:09 41.17042 -99.18290 34711 ft 496 kts 80°
2026-05-04 13:10 41.17891 -99.09285 34713 ft 495 kts 80°
2026-05-04 13:10 41.18737 -99.00233 34585 ft 497 kts 81°
2026-05-04 13:10 41.19160 -98.95679 34326 ft 496 kts 81°
2026-05-04 13:11 41.19580 -98.91139 34092 ft 494 kts 81°
2026-05-04 13:11 41.19996 -98.86617 33861 ft 494 kts 81°
2026-05-04 13:11 41.20410 -98.82088 33611 ft 494 kts 81°
2026-05-04 13:11 41.20818 -98.77623 33350 ft 494 kts 81°
2026-05-04 13:12 41.21230 -98.73097 33080 ft 494 kts 81°
2026-05-04 13:12 41.21640 -98.68558 32826 ft 494 kts 81°
2026-05-04 13:12 41.22046 -98.64039 32562 ft 493 kts 81°
2026-05-04 13:12 41.22452 -98.59511 32298 ft 493 kts 81°
2026-05-04 13:13 41.22855 -98.55000 32032 ft 492 kts 81°
2026-05-04 13:13 41.23255 -98.50488 31782 ft 491 kts 81°
2026-05-04 13:13 41.23654 -98.45980 31523 ft 491 kts 81°
2026-05-04 13:13 41.24050 -98.41477 31282 ft 490 kts 81°
2026-05-04 13:14 41.24440 -98.37034 31034 ft 490 kts 81°
2026-05-04 13:14 41.24831 -98.32545 30798 ft 490 kts 82°
2026-05-04 13:14 41.25223 -98.28038 30551 ft 490 kts 82°
2026-05-04 13:14 41.25611 -98.23541 30305 ft 490 kts 82°
2026-05-04 13:15 41.25997 -98.19053 30046 ft 488 kts 82°
2026-05-04 13:15 41.26378 -98.14598 29494 ft 483 kts 82°
2026-05-04 13:15 41.26753 -98.10194 28985 ft 476 kts 82°
2026-05-04 13:15 41.27120 -98.05851 28448 ft 471 kts 82°
2026-05-04 13:16 41.27483 -98.01555 27918 ft 466 kts 82°
2026-05-04 13:16 41.27836 -97.97354 27414 ft 461 kts 82°
2026-05-04 13:16 41.28189 -97.93140 26894 ft 456 kts 82°
2026-05-04 13:16 41.28536 -97.88971 26379 ft 452 kts 82°
2026-05-04 13:17 41.28880 -97.84833 25873 ft 448 kts 82°
2026-05-04 13:17 41.29219 -97.80726 25376 ft 445 kts 82°
2026-05-04 13:17 41.29554 -97.76657 24876 ft 441 kts 82°
2026-05-04 13:17 41.29885 -97.72613 24384 ft 438 kts 82°
2026-05-04 13:18 41.30213 -97.68595 23883 ft 435 kts 82°
2026-05-04 13:18 41.30532 -97.64669 23406 ft 433 kts 82°
2026-05-04 13:18 41.30854 -97.60691 22832 ft 431 kts 82°
2026-05-04 13:18 41.31170 -97.56753 22311 ft 427 kts 82°
2026-05-04 13:19 41.31484 -97.52834 21784 ft 424 kts 82°
2026-05-04 13:19 41.31689 -97.50268 21455 ft 421 kts 82°
2026-05-04 13:19 41.32099 -97.45107 20832 ft 417 kts 82°
2026-05-04 13:19 41.32402 -97.41284 20362 ft 414 kts 82°
2026-05-04 13:20 41.32697 -97.37539 19890 ft 412 kts 82°
2026-05-04 13:20 41.32993 -97.33765 19428 ft 409 kts 82°
2026-05-04 13:20 41.33287 -97.30008 18939 ft 407 kts 82°
2026-05-04 13:20 41.33578 -97.26263 18441 ft 406 kts 82°
2026-05-04 13:21 41.33867 -97.22535 17951 ft 405 kts 82°
2026-05-04 13:21 41.34154 -97.18815 17412 ft 403 kts 82°
2026-05-04 13:21 41.34438 -97.15114 16914 ft 401 kts 82°
2026-05-04 13:21 41.34719 -97.11436 16428 ft 398 kts 82°
2026-05-04 13:22 41.34993 -97.07836 15958 ft 395 kts 82°
2026-05-04 13:22 41.35268 -97.04218 15499 ft 392 kts 82°
2026-05-04 13:22 41.35540 -97.00617 15030 ft 390 kts 82°
2026-05-04 13:22 41.35809 -96.97034 14619 ft 386 kts 82°
2026-05-04 13:23 41.36072 -96.93529 14326 ft 379 kts 82°
2026-05-04 13:23 41.36332 -96.90047 13921 ft 377 kts 82°
2026-05-04 13:23 41.36587 -96.86581 13481 ft 375 kts 83°
2026-05-04 13:23 41.36469 -96.83135 13121 ft 372 kts 101°
2026-05-04 13:24 41.35855 -96.79854 12718 ft 369 kts 104°
2026-05-04 13:24 41.35223 -96.76559 12288 ft 367 kts 103°
2026-05-04 13:24 41.34612 -96.73278 11850 ft 365 kts 103°
2026-05-04 13:25 41.33434 -96.66743 10993 ft 362 kts 102°
2026-05-04 13:25 41.32862 -96.63516 10811 ft 353 kts 102°
2026-05-04 13:25 41.32310 -96.60381 10645 ft 344 kts 102°
2026-05-04 13:25 41.31770 -96.57318 10481 ft 335 kts 102°
2026-05-04 13:26 41.31245 -96.54338 10337 ft 327 kts 102°
2026-05-04 13:26 41.30732 -96.51431 10196 ft 319 kts 102°
2026-05-04 13:26 41.30238 -96.48634 10053 ft 311 kts 102°
2026-05-04 13:26 41.29747 -96.45860 9838 ft 308 kts 102°
2026-05-04 13:27 41.29255 -96.43084 9549 ft 307 kts 102°
2026-05-04 13:27 41.28766 -96.40323 9244 ft 307 kts 102°
2026-05-04 13:27 41.28277 -96.37571 8938 ft 306 kts 102°
2026-05-04 13:27 41.27790 -96.34827 8629 ft 305 kts 102°
2026-05-04 13:28 41.27301 -96.32087 8339 ft 304 kts 102°
2026-05-04 13:28 41.26815 -96.29366 8050 ft 302 kts 102°
2026-05-04 13:28 41.26335 -96.26686 7779 ft 301 kts 102°
2026-05-04 13:28 41.25850 -96.23978 7488 ft 301 kts 102°
2026-05-04 13:29 41.25366 -96.21273 7201 ft 301 kts 102°
2026-05-04 13:29 41.24883 -96.18574 6904 ft 300 kts 102°
2026-05-04 13:29 41.24400 -96.15881 6612 ft 299 kts 102°
2026-05-04 13:29 41.23917 -96.13194 6317 ft 299 kts 102°
2026-05-04 13:30 41.23434 -96.10511 6028 ft 298 kts 102°
2026-05-04 13:30 41.22952 -96.07832 5721 ft 298 kts 102°
2026-05-04 13:30 41.22477 -96.05196 5438 ft 297 kts 103°
2026-05-04 13:30 41.21997 -96.02534 5163 ft 295 kts 103°
2026-05-04 13:31 41.21519 -95.99893 4924 ft 293 kts 103°
2026-05-04 13:31 41.21044 -95.97289 4778 ft 286 kts 105°
2026-05-04 13:31 41.20236 -95.94956 4680 ft 274 kts 132°
2026-05-04 13:31 41.18947 -95.93179 4637 ft 263 kts 136°
2026-05-04 13:32 41.17689 -95.91455 4539 ft 255 kts 136°
2026-05-04 13:32 41.16477 -95.89843 4461 ft 243 kts 137°
2026-05-04 13:32 41.15321 -95.88327 4360 ft 227 kts 137°
2026-05-04 13:32 41.14243 -95.86905 4305 ft 210 kts 138°
2026-05-04 13:33 41.13217 -95.85576 4282 ft 203 kts 138°
2026-05-04 13:33 41.12216 -95.84262 4285 ft 203 kts 137°
2026-05-04 13:33 41.11175 -95.82883 4313 ft 222 kts 137°
2026-05-04 13:33 41.10090 -95.81373 4307 ft 230 kts 130°
2026-05-04 13:34 41.09477 -95.79422 4174 ft 236 kts 92°
2026-05-04 13:34 41.09652 -95.78014 4074 ft 234 kts 64°
2026-05-04 13:34 41.10646 -95.76394 4041 ft 225 kts 39°
2026-05-04 13:34 41.12203 -95.74582 3993 ft 223 kts 30°
2026-05-04 13:35 41.13631 -95.74073 3991 ft 212 kts 348°
2026-05-04 13:35 41.16033 -95.76065 3988 ft 198 kts 323°
2026-05-04 13:35 41.17154 -95.77066 3811 ft 191 kts 322°
2026-05-04 13:36 41.17874 -95.77731 3652 ft 188 kts 321°
2026-05-04 13:36 41.18924 -95.78727 3425 ft 183 kts 321°
2026-05-04 13:36 41.19927 -95.79683 3194 ft 172 kts 321°
2026-05-04 13:36 41.21189 -95.80887 2914 ft 168 kts 319°
2026-05-04 13:37 41.22127 -95.81785 2706 ft 165 kts 320°
2026-05-04 13:37 41.23042 -95.82658 2483 ft 158 kts 319°
2026-05-04 13:37 41.23929 -95.83505 2294 ft 158 kts 319°
2026-05-04 13:37 41.24528 -95.84074 2152 ft 161 kts 319°
2026-05-04 13:38 41.25432 -95.84939 1954 ft 159 kts 320°
2026-05-04 13:38 41.26324 -95.85792 1726 ft 155 kts 322°
2026-05-04 13:38 41.27183 -95.86613 1527 ft 149 kts 322°
2026-05-04 13:38 41.28025 -95.87408 1330 ft 148 kts 324°
2026-05-04 13:39 41.28855 -95.88209 1112 ft 147 kts 323°
2026-05-04 13:39 41.29924 -95.89224 992 ft 128 kts 325°
2026-05-04 13:39 41.30359 -95.89638 984 ft 99 kts 324°
2026-05-04 13:39 41.30795 -95.90052 986 ft 57 kts 324°
2026-05-04 13:40 41.31027 -95.90282 983 ft 23 kts 305°
2026-05-04 13:40 41.31019 -95.90373 984 ft 8 kts 233°
2026-05-04 13:40 41.30974 -95.90397 987 ft 7 kts 163°
2026-05-04 13:40 41.30931 -95.90362 990 ft 7 kts 142°
2026-05-04 13:41 41.30891 -95.90322 983 ft 7 kts 144°
2026-05-04 13:41 41.30852 -95.90284 988 ft 7 kts 146°
2026-05-04 13:41 41.30800 -95.90233 987 ft 12 kts 137°
2026-05-04 13:42 41.30579 -95.90025 991 ft 23 kts 145°
2026-05-04 13:42 41.30447 -95.89902 990 ft 23 kts 143°
2026-05-04 13:42 41.30347 -95.89813 989 ft 12 kts 171°
2026-05-04 13:42 41.30292 -95.89847 990 ft 10 kts 189°
2026-05-04 13:43 41.30228 -95.89787 993 ft 14 kts 139°
2026-05-04 13:43 41.30159 -95.89720 987 ft 12 kts 144°
2026-05-04 13:43 41.30068 -95.89687 985 ft 12 kts 179°
2026-05-04 13:43 41.29987 -95.89689 984 ft 12 kts 185°
2026-05-04 13:44 41.29953 -95.89771 986 ft 6 kts 266°
2026-05-04 13:44 41.29994 -95.89818 984 ft 11 kts 358°
2026-05-04 13:44 41.30039 -95.89823 988 ft 4 kts 351°
2026-05-04 13:44 41.30045 -95.89824 988 ft 0 kts 351°